sat.trackr.live / text

‹ back to catalog

STARLINK-32812

NORAD 63038 · 2025-034K

PAYLOAD ACTIVE UNKNOWN

§ Identity

Operator
Country
US
Launch date
2025-02-18
Launch site
AFETR
Launch vehicle
Mass (kg)
RCS (m²)

Purposes: comms

External: N2YO · Heavens-Above · Gunter

§ Orbital elements

Epoch: 2026-09-21T18:42:04.134528Z

Period
94.01 min
Inclination
53.1621°
Eccentricity
0.0001468
Mean motion
15.31712301 rev/d
Perigee alt
469.7 km
Apogee alt
471.7 km
Semi-major
6,848.8 km
B*
3.7562e-4
RAAN
66.9770°
Arg perigee
57.1407°
Mean anomaly
302.9736°
Rev number
8,911

§ Raw data

STARLINK-328121 63038U 25034K   26264.77921452  .00011313  00000+0  37562-3 0  99952 63038  53.1621  66.9770 0001468  57.1407 302.9736 15.31712301 89111

JSON: /api/v1/satellites/63038 · /tle

For live sub-satellite position, see the globe view (requires WebGL).

§ Visibility from observer

Set your observer location to see the next 7 days of passes ≥ 10°. The values pass through the URL so the page stays shareable.

No JS? Fill the form by hand. The geolocation button needs JavaScript.